Temperature
13 13 13 13 13 13 14 14 14 14 14 14 14 14 15 15 14 14 15 15 15 15 15 15 15 15 15 15 15 15 15 15 15 15 14 14 14 14 14 14 14 14 14
12 13 13 13 13 13 14 14 14 14 14 14 14 14 14 14 14 14 14 14 14 15 15 15 15 15 15 15 15 15 15 15 14 14 14 14 14 14 14 14 14 14 14
12 13 13 13 13 13 13 14 14 14 14 14 14 14 14 14 14 14 14 14 14 14 14 14 14 14 15 15 15 15 14 14 14 14 14 14 14 14 14 14 14 14 14
12 12 13 13 13 13 13 13 13 13 14 14 14 14 14 14 14 14 14 14 14 14 14 14 14 14 14 14 14 14 14 14 14 14 14 14 14 14 14 14 13 14 14
12 12 12 12 13 13 13 13 13 13 13 13 13 13 13 14 14 14 14 14 14 14 14 14 14 14 14 14 14 14 14 14 14 14 14 14 14 13 13 13 13 13 13
11 12 12 12 12 13 13 13 13 13 13 13 13 13 13 13 13 13 13 13 13 14 14 14 14 14 14 14 14 14 14 14 14 14 14 13 13 13 13 13 13 13 13
11 11 12 12 12 12 12 12 12 12 12 13 13 13 13 13 13 13 13 13 13 13 13 13 13 13 13 13 13 14 14 14 13 13 13 13 13 13 13 13 13 13 13
11 11 11 11 12 12 12 12 12 12 12 12 12 13 13 13 13 13 13 13 13 13 13 13 13 13 13 13 13 13 13 13 13 13 13 13 13 13 13 13 13 13 13
10 11 11 11 11 11 11 11 12 12 12 12 12 12 12 12 13 13 13 13 13 13 13 13 13 13 13 13 13 13 13 13 13 13 13 13 13 13 13 13 13 13 13
10 10 10 11 11 11 11 11 11 11 11 12 12 12 12 12 12 12 12 12 12 12 12 12 12 12 12 12 12 12 13 13 13 13 13 13 13 13 13 13 13 13 13
10 10 10 10 10 10 11 11 11 11 11 11 11 11 11 11 11 12 12 12 12 12 12 12 12 12 12 12 12 12 12 12 12 12 12 12 12 12 12 13 13 13 12
9 9 10 10 10 10 10 10 10 10 10 10 11 11 11 11 11 11 11 11 11 11 11 12 12 12 12 12 12 12 12 12 12 12 12 12 12 12 12 12 12 13 12
8 9 9 9 10 10 10 10 10 10 10 10 10 10 10 10 10 10 11 11 11 11 11 11 11 11 11 12 12 12 12 12 12 12 12 12 12 12 12 12 12 12 12
8 8 8 8 9 9 9 9 9 9 9 10 10 10 10 10 10 10 10 10 11 11 11 11 11 11 11 11 11 11 11 11 12 12 12 12 12 12 12 12 12 12 12
7 7 7 8 8 8 9 9 9 9 9 9 9 9 9 9 10 10 10 10 10 10 10 10 10 10 10 11 11 11 11 11 11 11 12 12 12 12 12 12 12 12 12
6 7 7 7 7 8 8 8 9 9 9 9 9 9 9 9 9 9 9 9 10 10 10 10 10 10 10 10 10 10 11 11 11 11 11 11 11 11 12 11 11 11 11
6 6 6 7 7 7 7 8 8 8 8 8 8 8 8 8 9 9 9 9 9 9 9 9 9 9 9 10 10 10 10 10 10 11 11 11 11 11 11 11 11 11 11
5 6 6 6 6 7 7 7 7 7 8 8 8 8 8 8 8 8 8 9 8 9 8 8 9 9 9 9 9 10 10 10 10 10 10 10 11 11 11 11 11 11 11
5 5 5 6 6 6 6 6 7 7 7 7 7 7 7 7 8 8 8 8 8 8 8 8 8 8 8 9 9 9 9 10 10 10 10 10 10 10 10 11 11 11 11
4 4 5 5 5 6 6 6 6 6 6 6 7 7 7 7 7 7 7 7 7 7 7 7 8 8 8 8 8 9 9 9 9 10 10 10 10 10 10 10 10 10 10
4 4 4 5 5 5 5 5 5 6 6 6 6 6 6 6 6 6 7 7 7 7 7 7 7 7 7 7 8 8 8 9 9 9 9 10 10 10 10 10 10 10 10
3 3 4 4 4 4 4 5 5 5 5 5 5 5 6 6 6 6 6 6 6 6 7 7 6 6 6 7 7 7 7 8 8 9 9 9 9 9 10 10 10 10 10
3 3 3 3 4 4 4 4 4 4 4 5 5 5 5 5 5 6 6 6 6 6 6 6 6 6 6 6 6 6 6 7 7 8 9 9 9 9 9 9 10 10 10
2 3 3 3 3 3 3 3 3 3 4 4 4 4 4 5 5 5 5 5 5 5 6 6 6 6 6 6 6 6 6 7 7 7 8 8 8 9 9 9 9 9 9
2 2 2 2 2 3 3 3 3 3 3 3 3 3 4 4 4 4 5 4 5 5 5 5 5 5 5 5 6 6 6 6 6 6 7 8 8 8 8 9 9 9 9
2 2 2 2 2 2 2 2 2 2 2 2 3 3 3 3 3 4 4 4 4 4 5 5 5 5 5 5 5 5 5 6 6 6 6 7 7 8 8 8 9 9 9
Wind_Speed
4 8 6 4 3 4 6 7 9 9 10 11 11 11 11 12 12 12 13 13 13 13 14 14 14 15 15 15 15 15 15 15 15 15 15 15 15 16 16 15 15 15 17
5 6 4 2 3 4 6 7 8 9 9 10 10 10 11 11 11 12 12 12 12 13 13 13 14 14 15 14 14 15 15 15 15 15 14 14 14 15 15 15 14 14 16
6 5 3 3 3 5 6 7 8 8 8 9 9 10 10 10 10 11 11 12 12 13 13 13 13 14 14 14 14 14 14 14 14 13 12 12 12 13 14 14 15 15 15
6 5 4 4 4 5 6 7 7 8 8 8 9 9 10 10 10 10 11 12 12 12 12 13 13 13 13 13 13 12 13 13 12 11 10 10 10 12 13 14 14 14 15
8 7 5 4 4 5 6 6 7 7 7 8 8 8 9 9 10 10 11 11 11 12 12 12 12 12 12 12 12 12 12 12 12 11 10 9 9 11 12 14 14 14 14
8 9 7 5 5 5 6 6 6 7 7 7 7 8 8 8 9 10 10 10 10 11 11 11 11 11 11 11 11 11 11 11 11 10 9 9 9 10 12 13 13 13 13
7 9 8 8 7 5 5 6 6 6 6 7 7 7 8 8 9 9 9 9 9 9 10 10 10 10 10 10 10 10 10 10 10 9 8 8 8 10 11 11 12 12 12
6 9 9 8 9 8 5 5 6 6 6 6 7 7 7 8 9 9 9 8 8 9 9 9 9 9 9 9 9 9 9 9 8 8 7 7 8 9 10 11 11 11 11
7 8 9 8 8 8 8 6 5 6 6 6 6 7 7 8 8 8 8 8 8 8 8 8 8 8 8 8 8 8 9 9 8 7 6 6 7 8 9 10 11 11 11
6 8 8 8 8 8 7 7 6 5 6 6 6 6 7 8 7 7 7 7 7 7 7 7 7 7 7 7 8 8 8 8 7 6 5 5 6 8 9 9 10 11 11
6 7 7 7 8 7 6 6 7 6 6 6 6 6 7 6 6 6 6 6 6 6 6 6 6 7 7 7 8 8 8 7 6 5 4 4 6 7 8 9 9 10 10
4 5 6 6 6 6 5 5 6 6 5 5 5 5 5 6 5 5 5 5 6 6 6 6 6 6 6 6 6 7 6 6 5 4 3 4 5 6 7 8 9 9 9
2 3 4 5 5 5 4 4 4 4 5 5 5 5 5 5 5 5 4 4 5 6 6 6 6 5 5 4 4 5 5 5 4 3 2 3 4 6 6 7 8 9 9
2 3 4 5 4 4 4 3 3 3 3 4 4 4 4 3 3 3 3 3 3 3 4 4 4 3 3 3 4 4 4 3 3 3 2 2 3 5 5 6 7 7 8
2 3 3 4 3 3 3 3 3 3 3 3 3 3 2 2 1 2 1 2 2 2 3 3 3 3 2 3 3 3 3 2 2 2 2 2 3 4 4 5 5 6 7
3 3 3 3 3 2 2 2 2 2 2 3 3 3 2 1 1 1 1 1 1 1 2 2 2 1 1 2 1 2 2 2 2 1 2 2 2 3 3 4 4 5 6
4 4 2 2 2 1 1 1 2 2 2 2 2 2 3 1 1 1 1 0 0 1 2 2 2 2 1 1 0 1 2 2 2 2 2 2 2 2 3 4 4 5 6
3 4 3 2 2 1 0 1 1 1 2 2 1 1 2 3 1 0 1 1 1 1 2 1 1 1 0 0 0 1 1 1 2 2 2 2 2 2 3 4 4 5 5
3 3 3 3 2 1 0 0 1 1 1 1 1 1 1 2 2 1 1 1 2 1 1 1 1 0 0 1 1 1 1 1 2 2 2 2 3 3 3 4 5 5 5
3 2 2 3 3 2 1 1 1 1 1 1 1 1 1 1 2 1 1 1 2 1 1 1 1 0 1 0 1 1 1 2 2 2 3 3 3 3 4 5 5 5 5
3 3 2 3 3 2 1 1 1 1 1 1 1 1 1 1 2 2 1 1 1 2 3 2 1 1 0 0 0 1 2 2 3 3 3 3 3 4 4 5 5 5 5
3 3 3 3 4 2 1 2 2 2 2 2 2 2 2 2 2 2 1 1 2 2 3 2 2 1 1 1 1 1 1 2 2 3 3 3 3 3 4 5 5 6 6
3 3 3 4 4 3 2 1 1 1 1 2 2 2 2 3 2 2 3 2 2 3 4 4 4 3 2 2 2 2 2 3 2 2 3 3 3 3 4 5 6 7 7
4 4 4 4 4 3 2 1 2 2 3 4 3 3 3 3 3 3 3 3 3 3 4 5 4 3 4 4 2 2 2 2 2 2 2 3 4 4 4 4 6 7 8
4 3 3 4 4 4 3 2 2 3 4 3 3 4 4 4 4 4 4 4 3 3 4 5 5 4 4 4 3 2 1 1 2 2 3 3 2 4 4 5 6 7 8
4 4 4 4 5 5 4 3 2 4 5 4 4 4 4 4 4 4 5 5 4 4 4 6 6 6 6 5 4 3 3 3 3 3 3 4 4 3 4 4 5 7 8
Wind_Direction
317 322 320 339 47 86 86 83 86 84 82 82 82 81 81 79 78 77 79 79 78 77 80 80 79 79 79 79 79 79 81 81 79 79 80 82 84 84 82 80 78 76 79
315 315 318 3 73 100 95 90 91 88 86 84 83 83 81 80 79 79 80 79 78 78 79 80 80 78 79 80 80 79 80 81 80 79 77 78 82 85 85 84 83 82 81
345 343 334 24 76 107 103 98 96 94 90 87 86 86 84 82 80 80 79 78 77 77 78 78 80 79 79 79 80 81 80 81 83 80 78 76 80 86 89 89 87 86 84
355 359 352 36 71 98 109 106 101 100 96 91 89 88 87 84 81 80 78 77 76 75 77 77 77 78 79 79 80 83 83 82 81 80 76 73 79 87 90 91 89 89 87
9 10 7 44 65 87 99 106 107 106 102 96 92 91 89 86 84 82 79 77 76 76 76 77 77 77 78 79 81 85 86 84 79 78 75 74 77 86 91 92 90 90 90
14 16 14 40 56 78 99 100 104 108 103 96 92 92 92 88 86 84 81 79 77 77 78 77 78 78 77 81 82 84 86 86 82 77 75 78 81 86 91 94 92 93 92
17 20 25 34 43 60 89 103 101 98 101 98 96 94 95 91 88 87 85 82 80 79 81 79 79 79 78 79 83 84 84 86 87 79 77 81 86 90 93 97 96 94 94
30 26 30 35 40 46 62 93 99 95 96 99 97 95 94 92 91 89 87 84 81 80 83 80 79 82 81 80 83 84 81 85 88 82 79 84 90 95 96 99 100 97 96
35 30 27 32 35 39 47 54 87 93 89 91 96 94 92 90 90 89 86 84 82 80 79 78 77 82 83 84 86 84 82 83 84 82 82 86 95 103 101 100 101 101 100
32 29 22 24 29 32 41 47 53 78 88 90 90 92 93 93 93 91 86 82 79 79 79 77 75 79 83 86 90 86 83 84 82 80 84 90 102 108 106 105 103 100 101
19 16 19 18 23 25 35 46 49 60 73 83 86 87 94 94 95 94 85 82 76 72 75 79 75 75 81 88 92 90 87 85 83 80 85 95 110 114 112 109 106 105 103
356 357 10 11 17 22 30 40 45 50 56 67 77 81 91 99 97 92 90 83 77 72 73 72 69 69 77 89 92 92 90 80 81 81 87 97 115 115 119 119 113 112 109
327 349 359 0 8 16 19 34 41 45 48 52 65 79 88 95 92 86 84 77 73 70 68 64 57 66 86 97 99 96 93 84 82 84 87 101 128 125 122 124 122 119 116
336 332 341 358 360 6 9 22 40 42 45 44 45 74 89 83 83 85 83 82 78 75 72 66 59 54 77 96 107 102 95 91 83 91 90 102 136 130 129 126 127 126 124
320 318 325 350 352 356 12 17 38 36 45 48 46 46 87 82 92 93 92 103 86 86 87 73 66 53 60 87 103 111 105 104 92 104 113 116 129 136 141 140 138 135 130
312 304 315 333 333 343 14 21 35 35 43 59 53 36 44 98 104 119 110 101 93 115 117 110 90 74 68 102 105 124 131 139 130 119 125 129 137 142 154 158 155 147 139
306 303 300 313 333 336 19 22 30 34 53 52 43 35 24 25 115 148 155 149 205 152 120 98 73 71 66 50 351 150 150 158 156 150 149 138 146 162 175 169 157 152 145
311 316 309 319 327 321 1 27 31 29 51 44 43 22 11 2 360 136 182 205 202 155 132 123 100 51 25 354 286 263 183 171 182 183 181 166 156 157 176 168 163 157 147
303 315 317 323 309 293 303 40 40 24 32 26 30 9 337 340 338 316 236 214 188 164 145 163 141 121 244 308 287 286 264 220 220 199 193 184 180 172 173 180 172 168 162
316 322 317 327 318 302 342 15 9 13 353 360 354 335 308 316 327 314 312 221 181 173 177 172 183 209 201 216 300 303 281 249 229 216 212 196 197 195 191 184 179 175 175
337 344 336 333 319 322 278 246 244 259 257 273 303 296 297 289 298 313 326 296 193 189 196 182 182 178 192 80 16 330 309 263 232 226 220 208 212 208 199 191 185 185 188
332 333 335 333 324 318 284 247 231 245 247 253 281 295 282 278 276 276 298 271 242 198 192 188 172 181 221 192 166 169 277 285 254 234 219 210 214 208 208 207 197 196 196
329 323 323 325 322 319 324 316 307 284 296 272 264 267 288 270 261 266 265 246 255 210 202 202 191 185 204 233 214 177 183 228 259 257 230 217 208 206 215 213 209 207 205
309 319 330 326 326 329 343 329 260 258 257 261 252 254 276 265 256 254 259 243 239 235 210 209 200 205 192 213 235 236 229 199 203 253 257 231 215 213 215 219 219 217 213
322 320 323 326 331 335 340 310 273 263 258 268 261 255 256 263 259 255 255 244 231 240 222 209 210 210 201 212 217 221 245 266 225 221 244 244 247 232 224 219 220 221 218
348 344 340 330 331 333 332 315 285 272 267 267 266 256 253 252 253 259 261 248 236 239 237 221 210 212 214 215 221 213 209 211 216 223 235 242 249 249 240 226 217 220 218
Height
1532 1533 1534 1535 1536 1536 1537 1537 1537 1537 1538 1538 1538 1538 1539 1539 1539 1540 1540 1541 1541 1541 1541 1541 1542 1542 1542 1542 1542 1543 1543 1543 1543 1543 1543 1543 1544 1544 1544 1544 1544 1544 1544
1532 1533 1533 1534 1535 1536 1537 1537 1537 1538 1538 1538 1539 1539 1539 1540 1540 1541 1541 1541 1542 1542 1542 1542 1543 1543 1543 1544 1544 1544 1544 1544 1545 1545 1545 1545 1545 1545 1545 1545 1545 1545 1545
1532 1532 1533 1534 1535 1536 1537 1537 1537 1538 1538 1539 1539 1539 1540 1540 1541 1541 1542 1542 1542 1543 1543 1543 1544 1544 1544 1545 1545 1545 1545 1546 1546 1546 1546 1546 1547 1547 1547 1547 1547 1547 1547
1531 1532 1533 1534 1535 1535 1536 1537 1537 1538 1538 1539 1539 1540 1540 1541 1541 1542 1542 1543 1543 1543 1543 1544 1544 1545 1545 1546 1546 1546 1546 1547 1547 1547 1548 1548 1548 1548 1548 1548 1548 1549 1549
1531 1532 1532 1533 1534 1535 1536 1537 1537 1538 1538 1539 1540 1540 1540 1541 1541 1542 1542 1543 1543 1544 1544 1544 1545 1545 1546 1546 1547 1547 1547 1548 1548 1548 1549 1549 1549 1550 1550 1550 1550 1550 1550
1531 1532 1532 1533 1534 1535 1535 1536 1537 1538 1538 1539 1539 1540 1540 1541 1542 1542 1542 1543 1543 1544 1544 1545 1545 1546 1546 1547 1547 1548 1548 1548 1549 1549 1550 1550 1550 1551 1551 1551 1551 1551 1552
1530 1531 1532 1533 1534 1534 1535 1536 1536 1537 1538 1539 1539 1540 1540 1541 1541 1542 1542 1543 1543 1544 1544 1545 1545 1546 1546 1547 1547 1548 1549 1549 1550 1550 1551 1551 1551 1552 1552 1552 1552 1552 1553
1530 1531 1531 1532 1533 1534 1534 1535 1536 1536 1537 1538 1539 1539 1540 1540 1541 1541 1542 1543 1543 1544 1544 1545 1545 1546 1546 1547 1547 1548 1549 1550 1550 1551 1551 1552 1552 1553 1553 1553 1553 1553 1553
1530 1530 1531 1531 1532 1533 1533 1534 1535 1536 1536 1537 1538 1539 1539 1540 1540 1541 1542 1542 1543 1543 1544 1544 1545 1546 1546 1547 1548 1548 1549 1550 1550 1551 1552 1552 1553 1553 1554 1554 1554 1554 1554
1529 1529 1530 1531 1531 1532 1533 1533 1534 1535 1535 1536 1537 1538 1539 1539 1540 1540 1541 1542 1542 1543 1543 1544 1545 1545 1546 1547 1547 1548 1549 1550 1550 1551 1552 1553 1553 1554 1554 1554 1555 1555 1555
1528 1528 1529 1529 1530 1530 1531 1532 1533 1534 1534 1535 1536 1537 1538 1538 1539 1539 1540 1541 1541 1542 1543 1543 1544 1545 1545 1546 1547 1548 1549 1549 1550 1551 1551 1552 1553 1554 1554 1555 1555 1555 1555
1526 1527 1527 1528 1528 1529 1530 1530 1531 1532 1533 1534 1535 1535 1536 1537 1538 1538 1539 1540 1541 1541 1542 1542 1543 1544 1545 1545 1546 1547 1548 1549 1549 1550 1551 1552 1553 1554 1554 1555 1555 1556 1556
1524 1525 1525 1526 1526 1527 1528 1528 1529 1530 1531 1532 1533 1534 1535 1535 1536 1537 1538 1538 1539 1540 1540 1541 1542 1543 1544 1545 1545 1546 1547 1548 1549 1549 1550 1551 1552 1553 1554 1555 1555 1556 1556
1523 1523 1524 1524 1524 1525 1526 1526 1527 1528 1529 1530 1531 1532 1533 1533 1534 1535 1536 1537 1538 1538 1539 1540 1541 1542 1543 1544 1544 1545 1546 1547 1548 1549 1550 1551 1552 1553 1553 1554 1555 1556 1556
1521 1521 1522 1522 1522 1523 1524 1524 1525 1526 1527 1528 1529 1530 1531 1532 1533 1533 1534 1535 1536 1537 1538 1539 1540 1541 1542 1542 1543 1544 1545 1546 1546 1548 1549 1550 1551 1551 1552 1553 1554 1555 1556
1519 1519 1519 1519 1520 1520 1521 1522 1522 1523 1525 1526 1527 1528 1529 1530 1531 1532 1533 1533 1534 1535 1536 1537 1538 1539 1540 1541 1542 1543 1543 1544 1545 1546 1547 1548 1549 1550 1551 1552 1553 1555 1555
1516 1517 1517 1517 1517 1518 1518 1519 1519 1521 1522 1523 1525 1526 1527 1527 1528 1529 1530 1531 1532 1533 1534 1535 1536 1538 1538 1539 1540 1541 1542 1543 1544 1545 1546 1547 1548 1549 1550 1551 1552 1553 1554
1514 1514 1514 1515 1515 1515 1516 1517 1517 1518 1519 1520 1522 1523 1524 1525 1526 1527 1528 1529 1530 1531 1532 1533 1534 1535 1536 1537 1537 1538 1539 1541 1542 1543 1544 1545 1546 1547 1548 1550 1551 1552 1553
1512 1512 1512 1512 1512 1513 1513 1514 1515 1515 1516 1517 1518 1520 1521 1522 1523 1523 1525 1526 1527 1528 1529 1530 1531 1533 1534 1534 1535 1536 1537 1538 1539 1540 1542 1543 1544 1545 1547 1548 1549 1550 1551
1509 1509 1509 1509 1510 1510 1511 1511 1512 1512 1513 1514 1515 1516 1517 1518 1519 1520 1521 1523 1524 1525 1526 1528 1529 1530 1531 1532 1533 1533 1534 1535 1537 1538 1539 1540 1542 1543 1544 1546 1547 1548 1549
1507 1506 1507 1507 1507 1507 1507 1507 1508 1508 1509 1510 1511 1512 1514 1515 1516 1517 1517 1519 1521 1522 1523 1524 1526 1527 1528 1530 1531 1530 1531 1533 1534 1535 1536 1537 1539 1541 1542 1543 1544 1546 1547
1504 1504 1504 1504 1504 1504 1504 1505 1505 1505 1506 1506 1508 1508 1510 1511 1512 1513 1514 1515 1517 1518 1520 1521 1523 1523 1525 1527 1528 1528 1529 1530 1530 1531 1533 1534 1536 1538 1539 1540 1542 1543 1544
1500 1501 1500 1501 1501 1501 1502 1502 1502 1503 1503 1503 1503 1504 1505 1507 1508 1509 1510 1511 1513 1514 1515 1517 1519 1520 1521 1524 1526 1527 1527 1526 1527 1528 1528 1530 1532 1534 1536 1537 1539 1540 1542
1498 1499 1499 1499 1499 1498 1498 1498 1499 1498 1498 1498 1499 1500 1501 1502 1503 1504 1506 1507 1508 1509 1511 1513 1514 1516 1518 1519 1521 1523 1525 1524 1525 1524 1525 1526 1528 1530 1532 1534 1535 1537 1538
1497 1497 1497 1496 1496 1495 1495 1495 1495 1495 1495 1495 1496 1496 1497 1497 1498 1499 1501 1502 1503 1504 1506 1508 1510 1512 1513 1515 1516 1518 1520 1521 1522 1522 1521 1521 1523 1526 1528 1529 1531 1533 1535
1495 1495 1495 1494 1493 1492 1492 1492 1492 1491 1491 1491 1491 1492 1492 1493 1493 1495 1496 1497 1498 1499 1501 1503 1504 1506 1508 1510 1512 1513 1515 1516 1517 1518 1518 1518 1519 1521 1523 1525 1527 1529 1530